User: anonymous   Login
Location: Sperry Observatory
(40.6664°N, 74.3236°W)
Time: 01:20:39
(UTC-04:00)
Language:

UOSAT-12 - Orbit

View from above orbital plane
View from above orbital plane
View from above satellite
View from above satellite

Ground track
Ground track

The orbit data is extracted from the following two-line orbital elements,

1 25693U 99021A   17086.94020652 -.00000002 +00000-0 +18538-4 0  9998
2 25693 064.5575 016.0845 0027413 320.0999 039.8090 14.80722658967860
Epoch (UTC): 27 March 2017 22:33:53
Eccentricity: 0.0027413
inclination: 64.5575°
perigee height: 608 km
apogee height: 646 km
right ascension of ascending node: 16.0845°
argument of perigee: 320.0999°
revolutions per day: 14.80722658
mean anomaly at epoch: 39.8090°
orbit number at epoch: 96786

The dashed part of the orbit path shows where the satellite is in the earth's shadow,  

DLR